Printer-friendly version
Follow the MPC on Twitter Follow the MPC on Facebook The MPC blog
Minor Planet Center

MPEC 2004-F66 : 2004 FY15

The following Minor Planet Electronic Circular may be linked-to from your own Web pages, but must not otherwise be redistributed electronically.

A form allowing access to any MPEC is at the bottom of this page.


Read MPEC 2004-F65 Read MPEC 2004-F67


M.P.E.C. 2004-F66                                Issued 2004 Mar. 26, 22:04 UT

     The Minor Planet Electronic Circulars contain information on unusual
         minor planets and routine data on comets.  They are published
   on behalf of Commission 20 of the International Astronomical Union by the
          Minor Planet Center, Smithsonian Astrophysical Observatory,
                          Cambridge, MA 02138, U.S.A.

         Supported in part by the Steven and Michele Kirsch Foundation
             Prepared using the Tamkin Foundation Computer Network

                              MPC@CFA.HARVARD.EDU
          URL http://cfa-www.harvard.edu/iau/mpc.html  ISSN 1523-6714

                                   2004 FY15

Observations:
     K04F15Y* C2004 03 26.25880 10 10 46.89 +19 11 42.8          18.0 V EF066703
     K04F15Y  C2004 03 26.26785 10 10 47.31 +19 07 44.3          16.9 V EF066703
     K04F15Y  C2004 03 26.27689 10 10 47.73 +19 03 39.5          19.1 V EF066703
     K04F15Y  C2004 03 26.28600 10 10 48.25 +18 59 39.1          16.8 V EF066703
     K04F15Y  C2004 03 26.33197 10 10 52.56 +18 38 03.6          16.2 V EF066703
     K04F15Y  C2004 03 26.33344 10 10 52.76 +18 37 19.6          17.0 V EF066703
     K04F15Y  C2004 03 26.33493 10 10 53.11 +18 36 32.6          16.3 V EF066703
     K04F15Y  C2004 03 26.33642 10 10 53.17 +18 35 50.5          15.2 V EF066703
     K04F15Y  C2004 03 26.36943 10 10 59.15 +18 19 19.6          16.4 R EF066854
     K04F15Y  C2004 03 26.37006 10 10 59.27 +18 18 59.9          16.1 R EF066854
     K04F15Y  C2004 03 26.37070 10 10 59.40 +18 18 41.0          16.3 R EF066854
     K04F15Y  C2004 03 26.41686 10 11 10.87 +17 53 21.5          16.5 R EF066H06
     K04F15Y  C2004 03 26.41788 10 11 11.45 +17 52 48.3          16.9 R EF066H06
     K04F15Y  C2004 03 26.41887 10 11 11.83 +17 52 16.7          17.2 R EF066H06
     K04F15Y  C2004 03 26.42081 10 11 12.67 +17 51 10.9          16.4 R EF066H06
     K04F15Y  C2004 03 26.42124 10 11 12.76 +17 50 56.2          16.6 R EF066H06
     K04F15Y  C2004 03 26.42176 10 11 12.97 +17 50 39.1          16.6 R EF066H06
     K04F15Y  C2004 03 26.42194 10 11 12.92 +17 50 32.5          16.5 R EF066H06
     K04F15Y  C2004 03 26.42238 10 11 13.16 +17 50 17.8          17.1 R EF066H06
     K04F15Y  C2004 03 26.83795 10 18 10.61 +12 50 00.8                 EF066620
     K04F15Y  C2004 03 26.83829 10 18 10.77 +12 49 40.6                 EF066620

Observer details:
620 Observatorio Astronomico de Mallorca.  Observers S. Sanchez, R. Stoss,
    J. Nomen.  0.30-m f/9 Schmidt-Cassegrain + CCD.
703 Catalina Sky Survey.  Observers S. Larson, E. Beshore, E. Christensen,
    R. Hill, S. Kolar, D. McLean.  0.68-m f/1.8 Schmidt + CCD.
854 Sabino Canyon Observatory, Tucson.  Observer J. E. McGaha.  0.356-m f/10.0
    Schmidt-Cassegrain + CCD.
H06 New Mexico Skies Observatory.  Observer R. Hutsebaut.  0.30-m f/7.8
    telescope + CCD.

Orbital elements:
2004 FY15
Epoch 2004 July 14.0 TT = JDT 2453200.5                 MPC
M  34.02410              (2000.0)            P               Q
n   0.39026403     Peri.  207.10576     -0.83535838     +0.54966548
a   1.8545151      Node     6.25072     -0.49262722     -0.74319589
e   0.4788201      Incl.    3.50208     -0.24391556     -0.38148097
P   2.53           H   26.1           G   0.15           U   6
Residuals in seconds of arc
040326 703 (0.2-  1.9+)   040326 703 (0.7-  2.6-)   040326 H06  1.5+  0.3+
040326 703  0.5+  0.1+    040326 854  0.4+  0.3-    040326 H06  0.3+  0.0
040326 703 (0.2+  4.7-)   040326 854  0.2+  0.5-    040326 H06  0.3+  0.2+
040326 703  0.1+  0.4+    040326 854  0.0   0.4+    040326 H06  1.5-  0.3-
040326 703  0.7-  0.1+    040326 H06  1.7-  0.4-    040326 H06  0.7-  0.4-
040326 703  0.7-  0.9-    040326 H06  0.8+  0.2+    040326 620  0.0   0.1+
040326 703 (1.4+  4.2-)   040326 H06  0.6+  1.5+    040326 620  0.3-  0.0

Ephemeris:
2004 FY15                a,e,i = 1.85, 0.48, 4                   q = 0.9665
Date    TT    R. A. (2000) Decl.     Delta      r     Elong.  Phase     V
2004 03 26.0  10 09.34   +20 50.3    0.0091   1.005   140.4    39.2    17.5
2004 03 26.2  10 10.61   +19 40.2    0.0082   1.004   141.1    38.6    17.2
2004 03 26.4  10 12.20   +18 11.5    0.0072   1.003   142.0    37.8    16.9
2004 03 26.6  10 14.23   +16 16.1    0.0063   1.003   143.1    36.7    16.6
2004 03 26.8  10 16.91   +13 39.9    0.0054   1.002   144.7    35.2    16.2
2004 03 27.0  10 20.64   +09 58.1    0.0044   1.002   146.7    33.1    15.7
2004 03 27.2  10 26.12   +04 22.3    0.0035   1.001   149.5    30.4    15.2
2004 03 27.4  10 35.02   -04 49.6    0.0027   1.000   152.3    27.6    14.5
2004 03 27.6  10 51.87   -21 14.1    0.0020   1.000   150.6    29.4    13.9
2004 03 27.8  11 35.29   -49 11.9    0.0016   0.999   132.4    47.5    13.9
2004 03 28.0  15 07.8    -75 32.3    0.0018   0.999   104.0    75.9    15.0
2004 03 28.2  20 03.16   -68 03.1    0.0023   0.998    84.3    95.6    16.4
2004 03 28.4  21 01.24   -57 30.7    0.0031   0.997    73.5   106.3    17.5
2004 03 28.6  21 21.23   -50 54.1    0.0040   0.997    67.4   112.3    18.4
2004 03 28.8  21 31.18   -46 36.0    0.0049   0.996    63.7   116.1    19.1
2004 03 29.0  21 37.13   -43 37.6    0.0058   0.996    61.2   118.5    19.7

Kyle E. Smalley              (C) Copyright 2004 MPC           M.P.E.C. 2004-F66

Read MPEC 2004-F65 Read MPEC 2004-F67


MPEC number:

Enter an MPEC number in one of the following forms:

  • 1997-B01 (the full form)
  • J97B01 (the packed version of the full form)
  • B01 (the abbreviated form)

Valid HTML 4.01!